This is the latest recevied weather packets stored in our database for station/object CE4ERM-13. If no packets are shown the sender has not sent any weather packets the latest 10 day(s).
| Time | Temp. | Humidity | Pressure | Rain* | Wind** | Luminosity | Snow |
|---|---|---|---|---|---|---|---|
| 1778132415 | 18.33° C | 47% | 1023.8 hPa | - | - | - | - |
| 1778132289 | 18.89° C | 53% | 1023.1 hPa | - | - | - | - |
| 1778132278 | 18.33° C | 47% | 1023.8 hPa | - | - | - | - |
| 1778132126 | 18.89° C | 53% | 1023.1 hPa | - | - | - | - |
| 1778131677 | 18.33° C | 48% | 1023.4 hPa | - | - | - | - |
| 1778131525 | 17.78° C | 59% | 1023 hPa | - | - | - | - |
| 1778130925 | 17.78° C | 59% | 1024.1 hPa | - | - | - | - |
| 1778130325 | 18.33° C | 56% | 1023.2 hPa | - | - | - | - |
| 1778129877 | 18.89° C | 48% | 1020.6 hPa | - | - | - | - |
| 1778129329 | 18.89° C | 48% | 1023.7 hPa | - | - | - | - |
| 1778129277 | 18.89° C | 48% | 1023.7 hPa | - | - | - | - |
| 1778128524 | 18.33° C | 59% | 1022.7 hPa | - | - | - | - |
| 1778128077 | 18.89° C | 48% | 1018.7 hPa | - | - | - | - |
| 1778127476 | 18.89° C | 49% | 1023 hPa | - | - | - | - |
| 1778126723 | 18.89° C | 59% | 1023 hPa | - | - | - | - |
| 1778126276 | 18.89° C | 48% | 1022.6 hPa | - | - | - | - |
| 1778125075 | 18.89° C | 48% | 1025.7 hPa | - | - | - | - |
| 1778124921 | 20° C | 52% | 1023.2 hPa | - | - | - | - |
| 1778124474 | 19.44° C | 48% | 1024.6 hPa | - | - | - | - |
| 1778124321 | 20.56° C | 54% | 1021.8 hPa | - | - | - | - |
| 1778123874 | 19.44° C | 48% | 1016.8 hPa | - | - | - | - |
| 1778123721 | 18.33° C | 61% | 1022.6 hPa | - | - | - | - |
| 1778122674 | 19.44° C | 48% | 1025.2 hPa | - | - | - | - |
| 1778122074 | 19.44° C | 49% | 1024.4 hPa | - | - | - | - |
| 1778121587 | 20° C | 56% | 1022.6 hPa | - | - | - | - |
* Rain since midnight (hover to see other rain measurements)
** Current wind speed in m/s (hover to see current wind gust speed)